timestamp,surface_pressure_avg,surface_temp_avg,battery_voltage,lat,long
2018-12-03 00:00:00+00:00,232.7231,3.9,13.05,47.84626,-54.09684
2018-12-03 00:10:00+00:00,225.7131,3.89,12.97,47.84626,-54.09684
2018-12-03 00:20:00+00:00,223.5481,3.89,13.05,47.84626,-54.09684
2018-12-03 00:30:00+00:00,218.2047,3.9,13.05,47.84626,-54.09684
2018-12-03 00:40:00+00:00,214.2248,3.9,13.05,47.84626,-54.09684
2018-12-03 00:50:00+00:00,213.6897,3.9,13.05,47.84626,-54.09684
2018-12-03 01:00:00+00:00,213.1998,3.9,12.97,47.84626,-54.09684
2018-12-03 01:10:00+00:00,209.0415,3.9,12.97,47.84626,-54.09684
2018-12-03 01:20:00+00:00,206.9648,3.9,13.05,47.84626,-54.09684
2018-12-03 01:30:00+00:00,204.1864,3.9,13.05,47.84626,-54.09684
2018-12-03 01:40:00+00:00,199.0781,3.9,13.05,47.84626,-54.09684
2018-12-03 01:50:00+00:00,194.9315,3.9,13.05,47.84626,-54.09684
2018-12-03 02:00:00+00:00,191.5648,3.9,12.97,47.84626,-54.09684
2018-12-03 02:10:00+00:00,191.4215,3.9,12.89,47.84626,-54.09684
2018-12-03 02:20:00+00:00,195.1581,3.89,12.97,47.84626,-54.09684
2018-12-03 02:30:00+00:00,201.2881,3.89,12.97,47.84626,-54.09684
2018-12-03 02:40:00+00:00,207.4098,3.88,13.05,47.84626,-54.09684
2018-12-03 02:50:00+00:00,207.8965,3.89,13.05,47.84626,-54.09684
2018-12-03 03:00:00+00:00,211.6531,3.9,12.97,47.84626,-54.09684
2018-12-03 03:10:00+00:00,216.9897,3.9,12.89,47.84626,-54.09684
2018-12-03 03:20:00+00:00,216.6781,3.9,12.97,47.84626,-54.09684
2018-12-03 03:30:00+00:00,217.6781,3.9,12.97,47.84626,-54.09684
2018-12-03 03:40:00+00:00,227.4815,3.9,13.05,47.84626,-54.09684
2018-12-03 03:50:00+00:00,234.0664,3.92,13.05,47.84626,-54.09684
2018-12-03 04:00:00+00:00,226.9247,3.9,12.97,47.84626,-54.09684
2018-12-03 04:10:00+00:00,227.5347,3.9,12.89,47.84626,-54.09684
2018-12-03 04:20:00+00:00,240.1931,3.9,12.97,47.84626,-54.09684
2018-12-03 04:30:00+00:00,239.0548,3.92,12.97,47.84626,-54.09684
2018-12-03 04:40:00+00:00,235.4898,3.91,12.97,47.84626,-54.09684
2018-12-03 04:50:00+00:00,247.2681,3.9,13.05,47.84626,-54.09684
2018-12-03 05:00:00+00:00,263.118,3.9,12.97,47.84626,-54.09684
2018-12-03 05:10:00+00:00,273.3947,3.9,12.89,47.84626,-54.09684
2018-12-03 05:20:00+00:00,278.318,3.9,12.97,47.84626,-54.09684
2018-12-03 05:30:00+00:00,283.8581,3.9,12.97,47.84626,-54.09684
2018-12-03 05:40:00+00:00,282.1564,3.9,12.97,47.84626,-54.09684
2018-12-03 05:50:00+00:00,286.1981,3.9,12.97,47.84626,-54.09684
2018-12-03 06:00:00+00:00,293.1614,3.94,12.89,47.84626,-54.09684
2018-12-03 06:10:00+00:00,307.9531,3.96,12.89,47.84626,-54.09684
2018-12-03 06:20:00+00:00,311.3663,3.96,12.97,47.84626,-54.09684
2018-12-03 06:30:00+00:00,315.3929,3.96,12.97,47.84626,-54.09684
2018-12-03 06:40:00+00:00,325.988,3.95,12.97,47.84626,-54.09684
2018-12-03 06:50:00+00:00,334.0013,3.95,12.97,47.84626,-54.09684
2018-12-03 07:00:00+00:00,329.3096,3.94,12.89,47.84626,-54.09684
2018-12-03 07:10:00+00:00,335.7828,3.91,12.81,47.84626,-54.09684
2018-12-03 07:20:00+00:00,342.8047,3.93,12.97,47.84626,-54.09684
2018-12-03 07:30:00+00:00,334.1013,3.9,12.97,47.84626,-54.09684
2018-12-03 07:40:00+00:00,328.8162,3.9,12.97,47.84626,-54.09684
2018-12-03 07:50:00+00:00,342.4079,3.9,12.97,47.84626,-54.09684
2018-12-03 08:00:00+00:00,347.7347,3.9,12.89,47.84626,-54.09684
2018-12-03 08:10:00+00:00,338.2596,3.9,12.81,47.84626,-54.09684
2018-12-03 08:20:00+00:00,341.518,3.9,12.97,47.84626,-54.09684
2018-12-03 08:30:00+00:00,351.8497,3.9,12.97,47.84626,-54.09684
2018-12-03 08:40:00+00:00,351.7446,3.9,12.97,47.84626,-54.09684
2018-12-03 08:50:00+00:00,348.108,3.9,12.97,47.84626,-54.09684
2018-12-03 09:00:00+00:00,349.3163,3.9,12.89,47.84626,-54.09684
2018-12-03 09:10:00+00:00,357.1963,3.96,12.81,47.84626,-54.09684
2018-12-03 09:20:00+00:00,355.113,4.0,12.97,47.84626,-54.09684
2018-12-03 09:30:00+00:00,346.2463,4.0,12.97,47.84626,-54.09684
2018-12-03 09:40:00+00:00,349.123,4.0,12.97,47.84626,-54.09684
2018-12-03 09:50:00+00:00,350.4263,4.0,12.97,47.84626,-54.09684
2018-12-03 10:00:00+00:00,341.0863,4.0,12.89,47.84626,-54.09684
2018-12-03 10:10:00+00:00,332.5046,3.97,12.81,47.84626,-54.09684
2018-12-03 10:20:00+00:00,329.6363,4.0,12.97,47.84626,-54.09684
2018-12-03 10:30:00+00:00,324.123,4.0,12.97,47.84626,-54.09684
2018-12-03 10:40:00+00:00,317.133,3.9,12.97,47.84626,-54.09684
2018-12-03 10:50:00+00:00,309.8814,3.9,12.97,47.84626,-54.09684
2018-12-03 11:00:00+00:00,307.7947,3.9,12.89,47.84626,-54.09684
2018-12-03 11:10:00+00:00,306.6863,3.9,12.81,47.84626,-54.09684
2018-12-03 11:20:00+00:00,298.3447,3.9,12.97,47.84626,-54.09684
2018-12-03 11:30:00+00:00,284.7131,3.9,12.97,47.84626,-54.09684
2018-12-03 11:40:00+00:00,276.3014,3.9,12.97,47.84626,-54.09684
2018-12-03 11:50:00+00:00,275.3047,3.8,12.97,47.84626,-54.09684
2018-12-03 12:00:00+00:00,267.3964,3.8,12.89,47.84626,-54.09684
2018-12-03 12:10:00+00:00,263.3047,3.8,12.81,47.84626,-54.09684
2018-12-03 12:20:00+00:00,262.6381,3.8,12.89,47.84626,-54.09684
2018-12-03 12:30:00+00:00,258.8147,3.8,12.97,47.84626,-54.09684
2018-12-03 12:40:00+00:00,250.3448,3.8,12.97,47.84626,-54.09684
2018-12-03 12:50:00+00:00,242.7614,3.8,12.97,47.84626,-54.09684
2018-12-03 13:00:00+00:00,243.8048,3.8,12.89,47.84626,-54.09684
2018-12-03 13:10:00+00:00,238.3797,3.8,12.81,47.84626,-54.09684
2018-12-03 13:20:00+00:00,221.2231,3.8,12.89,47.84626,-54.09684
2018-12-03 13:30:00+00:00,219.9665,3.8,12.97,47.84626,-54.09684
2018-12-03 13:40:00+00:00,234.3897,3.77,12.97,47.84626,-54.09684
2018-12-03 13:50:00+00:00,222.7598,3.77,12.97,47.84626,-54.09684
2018-12-03 14:00:00+00:00,205.8765,3.76,12.89,47.84626,-54.09684
2018-12-03 14:10:00+00:00,216.3531,3.7,12.81,47.84626,-54.09684
2018-12-03 14:20:00+00:00,224.5848,3.7,12.89,47.84626,-54.09684
2018-12-03 14:30:00+00:00,215.3114,3.7,12.97,47.84626,-54.09684
2018-12-03 14:40:00+00:00,216.1781,3.7,12.97,47.84626,-54.09684
2018-12-03 14:50:00+00:00,236.0248,3.7,12.97,47.84626,-54.09684
2018-12-03 15:00:00+00:00,241.2498,3.74,12.89,47.84626,-54.09684
2018-12-03 15:10:00+00:00,238.6047,3.77,12.81,47.84626,-54.09684
2018-12-03 15:20:00+00:00,249.2164,3.75,12.89,47.84626,-54.09684
2018-12-03 15:30:00+00:00,261.8197,3.75,12.97,47.84626,-54.09684
2018-12-03 15:40:00+00:00,258.7397,3.77,12.97,47.84626,-54.09684
2018-12-03 15:50:00+00:00,248.3331,3.75,12.97,47.84626,-54.09684
2018-12-03 16:00:00+00:00,260.0464,3.7,12.89,47.84626,-54.09684
2018-12-03 16:10:00+00:00,269.963,3.7,12.81,47.84626,-54.09684
2018-12-03 16:20:00+00:00,261.7564,3.73,12.89,47.84626,-54.09684
2018-12-03 16:30:00+00:00,260.5214,3.76,12.97,47.84626,-54.09684
2018-12-03 16:40:00+00:00,279.7881,3.73,12.97,47.84626,-54.09684
2018-12-03 16:50:00+00:00,272.6598,3.74,12.97,47.84626,-54.09684
2018-12-03 17:00:00+00:00,253.9831,3.79,12.89,47.84626,-54.09684
2018-12-03 17:10:00+00:00,270.6997,3.8,12.81,47.84626,-54.09684
2018-12-03 17:20:00+00:00,283.5613,3.8,12.97,47.84626,-54.09684
2018-12-03 17:30:00+00:00,273.2448,3.8,12.97,47.84626,-54.09684
2018-12-03 17:40:00+00:00,276.2414,3.8,12.97,47.84626,-54.09684
2018-12-03 17:50:00+00:00,305.2897,3.8,12.97,47.84626,-54.09684
2018-12-03 18:00:00+00:00,308.318,3.8,12.89,47.84626,-54.09684
2018-12-03 18:10:00+00:00,292.3914,3.8,12.81,47.84626,-54.09684
2018-12-03 18:20:00+00:00,292.8163,3.8,12.97,47.84626,-54.09684
2018-12-03 18:30:00+00:00,311.5397,3.8,12.97,47.84626,-54.09684
2018-12-03 18:40:00+00:00,311.8613,3.8,12.97,47.84626,-54.09684
2018-12-03 18:50:00+00:00,309.5797,3.8,12.97,47.84626,-54.09684
2018-12-03 19:00:00+00:00,313.6547,3.8,12.89,47.84626,-54.09684
2018-12-03 19:10:00+00:00,323.123,3.8,12.81,47.84626,-54.09684
2018-12-03 19:20:00+00:00,323.6113,3.8,12.97,47.84626,-54.09684
2018-12-03 19:30:00+00:00,327.7214,3.8,12.97,47.84626,-54.09684
2018-12-03 19:40:00+00:00,332.378,3.8,12.97,47.84626,-54.09684
2018-12-03 19:50:00+00:00,333.8214,3.8,12.97,47.84626,-54.09684
2018-12-03 20:00:00+00:00,341.5229,3.8,12.89,47.84626,-54.09684
2018-12-03 20:10:00+00:00,342.9913,3.8,12.81,47.84626,-54.09684
2018-12-03 20:20:00+00:00,333.703,3.8,12.97,47.84626,-54.09684
2018-12-03 20:30:00+00:00,336.0564,3.8,12.97,47.84626,-54.09684
2018-12-03 20:40:00+00:00,345.2863,3.8,12.97,47.84626,-54.09684
2018-12-03 20:50:00+00:00,352.3362,3.8,12.97,47.84626,-54.09684
2018-12-03 21:00:00+00:00,352.8796,3.82,12.89,47.84626,-54.09684
2018-12-03 21:10:00+00:00,359.408,3.84,12.81,47.84626,-54.09684
2018-12-03 21:20:00+00:00,369.9328,3.85,12.97,47.84626,-54.09684
2018-12-03 21:30:00+00:00,359.8846,3.89,12.97,47.84626,-54.09684
2018-12-03 21:40:00+00:00,359.2513,3.9,12.97,47.84626,-54.09684
2018-12-03 21:50:00+00:00,361.4547,3.9,12.97,47.84626,-54.09684
2018-12-03 22:00:00+00:00,354.0296,3.9,12.89,47.84626,-54.09684
2018-12-03 22:10:00+00:00,345.1246,3.95,12.81,47.84626,-54.09684
2018-12-03 22:20:00+00:00,349.6513,3.97,12.97,47.84626,-54.09684
2018-12-03 22:30:00+00:00,348.2079,3.95,12.97,47.84626,-54.09684
2018-12-03 22:40:00+00:00,331.678,3.94,12.97,47.84626,-54.09684
2018-12-03 22:50:00+00:00,326.903,3.98,12.97,47.84626,-54.09684
2018-12-03 23:00:00+00:00,335.8331,3.99,12.89,47.84626,-54.09684
2018-12-03 23:10:00+00:00,320.7697,3.95,12.81,47.84626,-54.09684
2018-12-03 23:20:00+00:00,305.8979,3.98,12.97,47.84626,-54.09684
2018-12-03 23:30:00+00:00,305.323,4.0,12.97,47.84626,-54.09684
2018-12-03 23:40:00+00:00,290.923,4.0,12.97,47.84626,-54.09684
2018-12-03 23:50:00+00:00,264.3314,4.0,12.97,47.84626,-54.09684
